TimePDT,TemperatureF,Dew PointF,Humidity,Sea Level PressureIn,VisibilityMPH,Wind Direction,Wind SpeedMPH,Gust SpeedMPH,PrecipitationIn,Events,Conditions,WindDirDegrees,DateUTC
12:53 AM,57.0,57.0,100,29.99,10.0,SW,6.9,-,N/A,,Overcast,230,2013-08-09 07:53:00
1:53 AM,57.0,57.0,100,29.98,10.0,West,9.2,-,N/A,,Overcast,280,2013-08-09 08:53:00
2:27 AM,57.2,55.4,94,29.97,10.0,West,6.9,-,N/A,,Overcast,260,2013-08-09 09:27:00
2:53 AM,57.0,57.0,100,29.96,10.0,WSW,5.8,-,N/A,,Overcast,250,2013-08-09 09:53:00
3:53 AM,57.0,57.0,100,29.96,10.0,West,9.2,-,0.00,,Overcast,270,2013-08-09 10:53:00
4:21 AM,57.2,57.2,100,29.95,10.0,WSW,3.5,-,N/A,,Overcast,250,2013-08-09 11:21:00
4:29 AM,57.2,57.2,100,29.95,10.0,West,3.5,-,N/A,,Overcast,280,2013-08-09 11:29:00
4:53 AM,57.0,57.0,100,29.94,10.0,SW,4.6,-,0.00,Rain,Light Rain,230,2013-08-09 11:53:00
5:08 AM,57.2,57.2,100,29.94,10.0,WSW,4.6,-,0.00,,Overcast,240,2013-08-09 12:08:00
5:25 AM,57.2,57.2,100,29.94,10.0,WSW,5.8,-,0.00,Rain,Light Rain,250,2013-08-09 12:25:00
5:53 AM,57.0,55.0,93,29.95,9.0,West,9.2,-,0.00,Rain,Light Rain,280,2013-08-09 12:53:00
6:11 AM,55.4,55.4,100,29.95,10.0,West,8.1,-,0.00,,Overcast,260,2013-08-09 13:11:00
6:34 AM,55.4,55.4,100,29.96,10.0,West,8.1,-,0.00,,Overcast,270,2013-08-09 13:34:00
6:53 AM,57.0,57.0,100,29.96,10.0,WSW,8.1,-,0.00,,Overcast,250,2013-08-09 13:53:00
7:53 AM,57.0,57.0,100,29.97,10.0,West,8.1,-,N/A,,Overcast,270,2013-08-09 14:53:00
8:53 AM,59.0,57.9,96,29.98,10.0,WSW,6.9,-,N/A,,Overcast,240,2013-08-09 15:53:00
9:53 AM,60.1,57.0,90,29.98,10.0,West,3.5,-,N/A,,Overcast,270,2013-08-09 16:53:00
10:53 AM,61.0,57.0,87,29.99,10.0,West,8.1,-,N/A,,Overcast,270,2013-08-09 17:53:00
11:53 AM,62.1,57.9,86,29.99,10.0,West,8.1,-,N/A,,Overcast,280,2013-08-09 18:53:00
12:48 PM,64.4,59.0,83,29.99,10.0,WSW,8.1,-,N/A,,Overcast,240,2013-08-09 19:48:00
12:53 PM,64.0,59.0,84,29.99,10.0,WSW,9.2,-,N/A,,Overcast,250,2013-08-09 19:53:00
1:53 PM,64.9,59.0,81,29.99,10.0,WSW,8.1,-,N/A,,Scattered Clouds,240,2013-08-09 20:53:00
2:53 PM,66.9,59.0,76,29.97,10.0,West,12.7,-,N/A,,Partly Cloudy,270,2013-08-09 21:53:00
3:53 PM,68.0,60.1,76,29.96,10.0,West,15.0,-,N/A,,Partly Cloudy,280,2013-08-09 22:53:00
4:53 PM,66.9,61.0,81,29.96,10.0,West,15.0,-,N/A,,Partly Cloudy,280,2013-08-09 23:53:00
5:53 PM,66.0,61.0,84,29.96,10.0,West,16.1,-,N/A,,Partly Cloudy,270,2013-08-10 00:53:00
6:51 PM,62.6,60.8,94,29.96,10.0,WNW,12.7,-,N/A,,Mostly Cloudy,290,2013-08-10 01:51:00
6:53 PM,63.0,60.1,90,29.96,10.0,WNW,15.0,-,N/A,,Mostly Cloudy,290,2013-08-10 01:53:00
7:53 PM,62.1,60.1,93,29.98,10.0,West,17.3,-,N/A,,Mostly Cloudy,280,2013-08-10 02:53:00
8:53 PM,61.0,60.1,97,29.99,10.0,West,11.5,-,N/A,,Overcast,270,2013-08-10 03:53:00
9:53 PM,61.0,60.1,97,30.01,10.0,West,11.5,-,N/A,,Overcast,280,2013-08-10 04:53:00
10:17 PM,60.8,59.0,94,30.01,10.0,West,10.4,-,N/A,,Overcast,280,2013-08-10 05:17:00
10:53 PM,60.1,59.0,96,30.01,10.0,West,9.2,-,N/A,,Overcast,280,2013-08-10 05:53:00
11:53 PM,59.0,59.0,100,30.02,10.0,West,12.7,-,N/A,,Overcast,280,2013-08-10 06:53:00